[[{"header":{"parameterUnit":"m.s-1","parameterCategory":1,"la1":30.2991,"la2":30.254,"lo1":-89.0895,"lo2":-89.0444,"dy":0.0017,"dx":0.0017,"nx":28,"ny":28,"refTime":"2025-03-18T09:00:00:Z","depth":0,"parameterNumber":2,"parameterNumberName":"U-component_of_WINDS"},"data":[0,0,0,0,0,0,0,0,0,0,0,0,0,0,0,0,0,0,0,0,0,0,0,0,0,0,0,0,0,0,0,0,0,0,0,0,0,0,0,0,0,0,0,0,0,0,0,0,0,0,0,0,0,0,0,0,0,0,-2.2231,-2.2231,0,-2.2219,-2.2219,-2.2219,-2.2172,-2.2171,-2.217,-2.2169,-2.2158,-2.2159,-2.2159,0,0,0,0,0,0,0,0,0,0,0,0,0,-2.2216,-2.2217,-2.2231,-2.2231,-2.2231,-2.222,-2.2219,-2.2219,-2.2172,-2.2171,-2.2169,-2.2168,-2.2158,-2.2159,-2.2159,0,0,0,0,0,0,0,0,0,0,0,0,0,-2.2216,-2.2217,-2.2231,-2.2206,-2.2204,-2.222,-2.2219,-2.2219,-2.2172,-2.2171,-2.2169,-2.2168,-2.2157,-2.2158,-2.216,-2.2199,0,0,-2.2163,-2.2163,0,0,0,0,0,0,0,0,-2.2216,-2.2216,-2.221,-2.2208,-2.2205,-2.2195,-2.221,-2.2212,-2.2173,-2.2184,-2.2169,-2.2167,-2.2172,-2.2172,-2.2173,-2.2199,-2.2198,-2.2163,-2.2164,-2.2164,-2.2164,0,0,0,0,0,0,0,-2.2216,-2.2216,-2.2227,-2.221,-2.2207,-2.2196,-2.2195,-2.221,-2.2187,-2.2183,-2.218,-2.2179,-2.217,-2.2172,-2.2172,-2.2198,-2.2163,-2.2164,-2.2165,-2.2165,-2.2257,-2.2259,0,0,0,0,0,0,-2.2219,-2.2217,-2.2227,-2.2226,-2.2207,-2.2198,-2.2196,-2.22,-2.2187,-2.2184,-2.218,-2.2177,-2.2171,-2.2171,-2.2172,-2.2217,-2.2164,-2.2165,-2.2166,-2.2256,-2.2258,-2.226,0,0,0,0,0,0,-2.2219,-2.222,-2.2228,-2.2221,-2.2221,-2.22,-2.2205,-2.2201,-2.2203,-2.2185,-2.2181,-2.2186,-2.217,-2.217,-2.2193,-2.2216,-2.2166,-2.2167,-2.2253,-2.2256,-2.2259,-2.2309,0,0,0,0,0,0,-2.2219,-2.2221,-2.2234,-2.2221,-2.2221,-2.2248,-2.2207,-2.2202,-2.2204,-2.22,-2.2189,-2.2186,-2.2168,-2.2192,-2.2194,-2.2217,-2.2167,-2.2251,-2.2255,-2.2258,-2.2305,-2.2313,-2.232,0,0,0,0,0,-2.2218,-2.2249,-2.2235,-2.2237,-2.2238,-2.2249,-2.2249,-2.2228,-2.2207,-2.2221,-2.221,-2.2186,-2.2214,-2.2194,-2.2197,-2.222,-2.2249,-2.2254,-2.2258,-2.2302,-2.2311,-2.232,0,0,0,0,0,0,-2.2265,-2.2247,-2.2231,-2.2259,-2.2256,-2.2241,-2.2258,-2.2239,-2.2242,-2.2238,-2.2212,-2.221,-2.2237,-2.2231,-2.2209,-2.2259,-2.2228,-2.2233,-2.2261,-2.227,-2.2277,-2.2277,-2.2168,0,0,0,0,0,-2.2279,-2.2289,-2.2273,-2.2298,-2.2298,-2.2279,-2.2283,-2.2267,-2.2263,-2.2262,-2.2252,-2.225,-2.2259,-2.2264,-2.2271,-2.2305,-2.2303,-2.2323,-2.2331,-2.2337,-2.234,-2.2359,-2.2368,-2.2273,-2.2273,-2.2273,0,0,-2.2307,-2.2298,-2.2306,-2.2308,-2.2303,-2.2315,-2.2278,-2.2291,-2.23,-2.2264,-2.2284,-2.2278,-2.2274,-2.2303,-2.2315,-2.2299,-2.2367,-2.2342,-2.2347,-2.2347,-2.2364,-2.2373,-2.2381,-2.2276,-2.2275,-2.2275,0,0,-2.2363,-2.2357,-2.2378,-2.2376,-2.237,-2.2358,-2.2363,-2.2352,-2.2347,-2.2367,-2.2341,-2.2352,-2.2366,-2.2365,-2.2366,-2.2426,-2.2404,-2.2429,-2.2467,-2.2485,-2.2492,-2.2499,-2.252,-2.2528,-2.2433,-2.2433,-2.2434,0,-2.2398,-2.2413,-2.2392,-2.2407,-2.2409,-2.2378,-2.24,-2.2399,-2.2396,-2.2399,-2.2382,-2.24,-2.2396,-2.2424,-2.2439,-2.2441,-2.2447,-2.2428,-2.2493,-2.2499,-2.2505,-2.2525,-2.2533,-2.2436,-2.2436,-2.2436,-2.2435,0,-2.2457,-2.2469,-2.2486,-2.2485,-2.2489,-2.2508,-2.249,-2.2498,-2.2483,-2.2473,-2.2495,-2.2489,-2.2494,-2.2501,-2.2486,-2.2528,-2.2518,-2.2498,-2.2465,-2.2517,-2.2535,-2.2543,-2.2441,-2.2439,-2.2439,-2.2438,0,0,-2.2538,-2.2527,-2.2533,-2.2533,-2.2526,-2.2535,-2.2554,-2.2559,-2.2566,-2.2567,-2.2582,-2.2597,-2.2579,-2.258,-2.2566,-2.2582,-2.263,-2.256,-2.2559,-2.2572,-2.2676,-2.269,-2.2699,-2.2617,-2.2619,-2.262,-2.2676,0,-2.2591,-2.262,-2.2603,-2.2635,-2.2646,-2.2619,-2.2635,-2.2634,-2.2626,-2.2636,-2.2628,-2.2638,-2.2613,-2.2614,-2.263,-2.2621,-2.265,-2.2617,-2.2631,-2.2632,-2.263,-2.2708,-2.2722,-2.2775,-2.2683,-2.2684,-2.2685,0,-2.2655,-2.2658,-2.2692,-2.2685,-2.2689,-2.2704,-2.2708,-2.2717,-2.2716,-2.271,-2.2713,-2.2696,-2.2715,-2.2686,-2.2712,-2.269,-2.2696,-2.2693,-2.2694,-2.2693,-2.266,-2.2707,-2.2792,-2.2799,-2.2696,-2.2695,-2.2694,0,-2.2709,-2.2723,-2.2745,-2.2746,-2.2739,-2.275,-2.2748,-2.2745,-2.275,-2.2755,-2.2758,-2.2765,-2.2769,-2.2776,-2.2761,-2.2741,-2.279,-2.2759,-2.2785,-2.2785,-2.2794,-2.2793,-2.2878,-2.2801,-2.2801,-2.2801,-2.2801,0,-2.2768,-2.279,-2.277,-2.2783,-2.2807,-2.2788,-2.2813,-2.2808,-2.2806,-2.2819,-2.2798,-2.281,-2.2791,-2.2803,-2.2792,-2.2816,-2.2818,-2.2814,-2.281,-2.2814,-2.2815,-2.2815,-2.2811,-2.2803,-2.2802,-2.2802,-2.2802,0,-2.2832,-2.2819,-2.2841,-2.2834,-2.2833,-2.2851,-2.2844,-2.2857,-2.285,-2.2866,-2.2869,-2.2857,-2.287,-2.2857,-2.2869,-2.2862,-2.2893,-2.2885,-2.2893,-2.289,-2.2916,-2.2913,-2.3003,-2.3014,-2.2931,-2.2932,-2.2933,0,-2.2869,-2.2885,-2.288,-2.2887,-2.2886,-2.2897,-2.2902,-2.2886,-2.2893,-2.2895,-2.2908,-2.2919,-2.2926,-2.2948,-2.294,-2.295,-2.2941,-2.2972,-2.2942,-2.2946,-2.294,-2.2938,-2.294,-2.2977,-2.2978,-2.2979,-2.298,0,-2.2936,-2.293,-2.2938,-2.2945,-2.2952,-2.2957,-2.296,-2.2967,-2.2951,-2.296,-2.2972,-2.2978,-2.2991,-2.3002,-2.301,-2.3009,-2.2992,-2.299,-2.2996,-2.2999,-2.3002,-2.3,-2.2907,-2.2987,-2.2986,-2.2986,-2.2985,-2.2985,-2.2986,-2.3,-2.2998,-2.3009,-2.301,-2.3014,-2.3026,-2.302,-2.303,-2.3039,-2.303,-2.3045,-2.3047,-2.3055,-2.3057,-2.307,-2.3057,-2.3066,-2.3068,-2.307,-2.3073,-2.3003,-2.3071,-2.3071,-2.3071,-2.3071,-2.3071,0,-2.3051,-2.305,-2.306,-2.3065,-2.3074,-2.3059,-2.3062,-2.307,-2.3084,-2.3087,-2.3095,-2.3111,-2.3123,-2.3118,-2.3128,-2.314,-2.3132,-2.3143,-2.3141,-2.3141,-2.3085,-2.3077,-2.3149,-2.3149,-2.3149,-2.3149,-2.3149,-2.3149,-2.3085,-2.3107,-2.3101,-2.3124,-2.3123,-2.3138,-2.3141,-2.3145,-2.3147,-2.3166,-2.3175,-2.3172,-2.3172,-2.3183,-2.3194,-2.3192,-2.3197,-2.321,-2.3205,-2.3152,-2.3145,-2.3137,-2.313,-2.3211,-2.3211,-2.326,-2.3261,-2.3261]},{"header":{"parameterUnit":"m.s-1","parameterCategory":1,"la1":30.2991,"la2":30.254,"lo1":-89.0895,"lo2":-89.0444,"dy":0.0017,"dx":0.0017,"nx":28,"ny":28,"refTime":"2025-03-18T09:00:00:Z","depth":0,"parameterNumber":3,"parameterNumberName":"V-component_of_WINDS"},"data":[0,0,0,0,0,0,0,0,0,0,0,0,0,0,0,0,0,0,0,0,0,0,0,0,0,0,0,0,0,0,0,0,0,0,0,0,0,0,0,0,0,0,0,0,0,0,0,0,0,0,0,0,0,0,0,0,0,0,3.1732,3.1732,0,3.1728,3.1728,3.1728,3.1762,3.1763,3.1764,3.1765,3.1758,3.1757,3.1756,0,0,0,0,0,0,0,0,0,0,0,0,0,3.1767,3.1766,3.1732,3.1732,3.1732,3.1728,3.1728,3.1728,3.1762,3.1763,3.1764,3.1765,3.1758,3.1757,3.1755,0,0,0,0,0,0,0,0,0,0,0,0,0,3.1756,3.1766,3.1732,3.1748,3.175,3.1728,3.1728,3.1728,3.1761,3.1763,3.1764,3.1766,3.1758,3.1757,3.1755,3.1717,0,0,3.175,3.175,0,0,0,0,0,0,0,0,3.1757,3.1755,3.1746,3.1747,3.1749,3.1747,3.1738,3.1724,3.1761,3.1757,3.1765,3.1766,3.1753,3.1752,3.1748,3.1717,3.1717,3.175,3.1749,3.1749,3.1748,0,0,0,0,0,0,0,3.1757,3.1755,3.173,3.1746,3.1747,3.1755,3.1755,3.1736,3.1747,3.1757,3.176,3.1759,3.1754,3.1749,3.1748,3.1717,3.175,3.1749,3.1748,3.1747,3.1657,3.1656,0,0,0,0,0,0,3.1756,3.1755,3.173,3.173,3.1756,3.1754,3.1754,3.1746,3.1747,3.1749,3.1758,3.1761,3.1751,3.175,3.1748,3.1705,3.1749,3.1747,3.1746,3.1659,3.1657,3.1655,0,0,0,0,0,0,3.1757,3.1754,3.1731,3.1744,3.1741,3.1751,3.1743,3.1745,3.1741,3.1748,3.175,3.1751,3.1752,3.175,3.1726,3.1705,3.1746,3.1745,3.166,3.1658,3.1656,3.1618,0,0,0,0,0,0,3.1758,3.1754,3.1739,3.1743,3.174,3.1708,3.1741,3.1744,3.1738,3.1742,3.1742,3.1743,3.1753,3.1728,3.1724,3.1704,3.1744,3.1662,3.1659,3.1657,3.1621,3.1615,3.161,0,0,0,0,0,3.1759,3.1727,3.1738,3.1735,3.1723,3.1707,3.1706,3.1719,3.1737,3.1722,3.1727,3.1743,3.1708,3.1725,3.1721,3.17,3.1663,3.166,3.1657,3.1624,3.1616,3.161,0,0,0,0,0,0,3.1719,3.1728,3.174,3.1709,3.1708,3.1713,3.1695,3.171,3.1702,3.1705,3.1721,3.1721,3.1694,3.1695,3.1713,3.1665,3.1689,3.1685,3.1665,3.1658,3.1652,3.1653,3.1742,0,0,0,0,0,3.1707,3.1694,3.1702,3.1674,3.1673,3.1684,3.1678,3.1689,3.1687,3.1686,3.1689,3.1686,3.1674,3.1666,3.1656,3.1622,3.1623,3.1606,3.16,3.1595,3.1591,3.1576,3.1569,3.1645,3.1645,3.1645,0,0,3.1681,3.1684,3.1675,3.1666,3.1666,3.1653,3.1683,3.1667,3.1657,3.1683,3.1661,3.1663,3.1661,3.1632,3.1619,3.1632,3.1571,3.1591,3.1587,3.1586,3.1572,3.1565,3.1558,3.1642,3.1643,3.1643,0,0,3.1627,3.1628,3.1606,3.1606,3.1607,3.1615,3.161,3.1613,3.1617,3.1595,3.1615,3.1603,3.1583,3.1581,3.1578,3.1527,3.1542,3.1523,3.1493,3.1477,3.1471,3.1466,3.145,3.1443,3.1519,3.1519,3.1519,0,3.1595,3.1576,3.1592,3.1576,3.1572,3.1597,3.1576,3.1574,3.157,3.1567,3.1581,3.1559,3.1558,3.1531,3.1519,3.1515,3.151,3.1523,3.1471,3.1466,3.1461,3.1446,3.1439,3.1517,3.1517,3.1518,3.1518,0,3.1537,3.1523,3.1505,3.1504,3.1498,3.1478,3.1493,3.1485,3.1497,3.1504,3.1482,3.1484,3.1476,3.147,3.148,3.1445,3.1453,3.1469,3.1493,3.1452,3.1437,3.1431,3.1514,3.1515,3.1515,3.1516,0,0,3.1456,3.1466,3.1459,3.146,3.1463,3.1453,3.1436,3.143,3.1423,3.142,3.1407,3.1391,3.1407,3.1403,3.1413,3.14,3.1362,3.1418,3.1418,3.1409,3.1325,3.1313,3.1306,3.1372,3.1371,3.137,3.1325,0,3.1404,3.1376,3.1392,3.1362,3.135,3.1376,3.1361,3.1361,3.1368,3.136,3.1367,3.1356,3.1377,3.1375,3.1363,3.1369,3.1346,3.1373,3.136,3.1359,3.136,3.1298,3.1285,3.1242,3.132,3.1319,3.1318,0,3.134,3.1338,3.1306,3.1315,3.1311,3.1297,3.1294,3.1286,3.1288,3.1294,3.1291,3.1306,3.129,3.1315,3.1294,3.1312,3.1308,3.1311,3.1309,3.1309,3.1336,3.1296,3.1229,3.1222,3.1309,3.131,3.131,0,3.1286,3.1274,3.1255,3.1255,3.1264,3.1254,3.1257,3.1261,3.1257,3.1254,3.1252,3.1246,3.1243,3.1239,3.1253,3.1269,3.123,3.1256,3.1235,3.1235,3.1225,3.1226,3.1157,3.1222,3.1222,3.1222,3.1222,0,3.1228,3.1208,3.1231,3.1219,3.1198,3.1217,3.1196,3.1202,3.1205,3.1195,3.1216,3.1206,3.1225,3.1216,3.1227,3.1209,3.1207,3.1212,3.1215,3.121,3.121,3.1208,3.1211,3.122,3.1221,3.1221,3.1221,0,3.1163,3.1178,3.1159,3.117,3.1172,3.1157,3.1166,3.1156,3.1165,3.1152,3.115,3.1164,3.1156,3.117,3.1163,3.117,3.1145,3.1152,3.1145,3.1147,3.1127,3.1129,3.1054,3.1046,3.1116,3.1115,3.1114,0,3.1124,3.111,3.1121,3.1117,3.112,3.1112,3.1109,3.1128,3.1124,3.1127,3.1116,3.111,3.1107,3.1093,3.1102,3.1097,3.1105,3.108,3.1104,3.1101,3.1106,3.1107,3.1107,3.1074,3.1073,3.1073,3.1072,0,3.1056,3.1065,3.106,3.1059,3.1055,3.1055,3.1056,3.1051,3.1071,3.1065,3.1059,3.1056,3.1051,3.1045,3.1043,3.1046,3.1063,3.1065,3.106,3.1055,3.1052,3.1055,3.1132,3.1066,3.1066,3.1067,3.1067,3.1068,3.1004,3.0993,3.1,3.0995,3.0999,3.1,3.0992,3.1001,3.0996,3.0994,3.1006,3.0997,3.1001,3.1001,3.1003,3.0996,3.1008,3.1,3.0999,3.0997,3.0994,3.1053,3.0996,3.0996,3.0996,3.0996,3.0997,0,3.0937,3.0944,3.0939,3.0941,3.0938,3.0955,3.0958,3.0954,3.0946,3.095,3.0947,3.094,3.0936,3.0946,3.0943,3.0936,3.0944,3.0935,3.0935,3.0936,3.0983,3.0988,3.0929,3.0929,3.0929,3.0929,3.0929,3.0929,3.0902,3.0886,3.0896,3.0883,3.089,3.0882,3.0883,3.0884,3.0888,3.088,3.0877,3.0884,3.0891,3.089,3.0887,3.089,3.0888,3.0877,3.0882,3.0926,3.0933,3.0939,3.0944,3.0876,3.0876,3.0836,3.0836,3.0836]}]]